Regional Weather Roundup
Issued by NWS

Home | Current Version | Previous Version | Graphics & Text | Print | Product List | Glossary On
Versions: 1 2 3 4 5 6 7 8 9 10 11 12 13 14 15 16 17 18 19 20 21 22 23 24 25 26 27 28 29 30 31 32 33 34 35 36 37 38 39 40 41 42 43 44 45 46 47 48 49 50
000
ASUS43 KLOT 082012
RWRIL

ILLINOIS REGIONAL WEATHER ROUNDUP
NATIONAL WEATHER SERVICE CHICAGO/ROMEOVILLE IL
200 PM CST THU DEC 08 2016

NOTE: "FAIR" INDICATES FEW OR NO CLOUDS BELOW 12,000 FEET WITH NO
SIGNIFICANT WEATHER AND/OR OBSTRUCTIONS TO VISIBILITY.

* THESE STATIONS ARE NOT UNDER NWS QUALITY CONTROL. THEY ALSO MAY NOT
  REPORT WEATHER SUCH AS PRECIPITATION OR FOG.

ILZ001-002-007-009-015-016-024-082100-
NORTHWEST ILLINOIS

CITY           SKY/WX    TMP DP  RH WIND       PRES   REMARKS
MOLINE         CLOUDY    22  12  65 W22G28    30.42R WCI   6
STERLING*      FLURRIES  21  16  81 W20       30.37R WCI   6
$$

ILZ003-004-008-010-011-017-018-082100-
NORTH CENTRAL ILLINOIS

CITY           SKY/WX    TMP DP  RH WIND       PRES   REMARKS
ROCKFORD       FLURRIES  22  14  71 W16G28    30.34R WCI   8
$$

ILZ005-006-012>014-019>023-082100-
NORTHEAST ILLINOIS

CITY           SKY/WX    TMP DP  RH WIND       PRES   REMARKS
CHICAGO-OHARE  FLURRIES  21  13  71 W14G22    30.30R WCI   8
CHICAGO-MIDWAY FLURRIES  21  11  65 W15G26    30.32R WCI   8
AURORA         CLOUDY    20  14  77 W18       30.34R WCI   5
WAUKEGAN       CLOUDY    23  13  65 W12G26    30.25R WCI  12
DUPAGE AIRPORT CLOUDY    19  12  74 W18       30.31R WCI   4
WHEELING       CLOUDY    21  12  68 W17G26    30.30R WCI   7
NORTHERLY ISL    N/A     21  13  71 W15         N/A  WCI   8
$$

LMZ740>746-082100-
SOUTHERN LAKE MICHIGAN

STATION/POSITION SKY/WX   TEMP    WIND        PRES    VSBY  WAVE
                          AIR SEA DIR/SP/G                  HT/PER
                          (F)     (DEG/KT/KT) (MB)    (MI)  (FT/S)
HARRISON CRIB              22     260/ 25/ 29   N/A
BURNHAM HARBOR             21     260/ 11/ 22   N/A
CALUMET HARBOR             20     240/ 14/ 20 1025.5R
BURNS HARBOR               22     260/ 23/ 28 1025.7R
$$

ILZ025>027-034>036-040-047-049-050-058-095>099-082100-
WEST-CENTRAL ILLINOIS

CITY           SKY/WX    TMP DP  RH WIND       PRES   REMARKS
QUINCY         PTSUNNY   24  11  57 W15G23    30.47F WCI  11
MACOMB*        CLOUDY    22  13  67 W21       30.48S WCI   6
$$

ILZ028>032-037-038-041>044-048-051>054-059>061-082100-
CENTRAL ILLINOIS

CITY           SKY/WX    TMP DP  RH WIND       PRES   REMARKS
BLOOMINGTON    CLOUDY    20  12  71 NW21      30.39R WCI   4
DECATUR        CLOUDY    22  12  65 W18G25    30.43R WCI   7
PEORIA         CLOUDY    20  11  68 W14G24    30.43S WCI   7
SPRINGFIELD    CLOUDY    25  14  63 W18G25    30.45R WCI  11
TAYLORVILLE    NOT AVBL
$$

ILZ033-039-045-046-055>057-062-063-082100-
EAST-CENTRAL ILLINOIS

CITY           SKY/WX    TMP DP  RH WIND       PRES   REMARKS
CHAMPAIGN      CLOUDY    23  12  62 W21G26    30.40R WCI   8
MATTOON        CLOUDY    23  12  62 W17       30.41R WCI   9
$$

ILZ079-100>102-082100-
SOUTHWEST ILLINOIS

CITY           SKY/WX    TMP DP  RH WIND       PRES   REMARKS
ALTON          MOSUNNY   28  14  54 NW15G22   30.48S WCI  17
BELLEVILLE     SUNNY     30  13  47 NW13G23   30.47S WCI  20
CAHOKIA*       SUNNY     30  12  47 W14G22    30.49S WCI  19
$$

ILZ064>066-069>071-074>076-080>082-084>086-088>090-092>094-082100-
SOUTH-CENTRAL ILLINOIS

CITY           SKY/WX    TMP DP  RH WIND       PRES   REMARKS
CARBONDALE     SUNNY     31  14  49 NW20      30.47F WCI  19
MARION         MOSUNNY   32  16  51 NW7       30.48S WCI  26
$$

ILZ067-068-072-073-078-083-087-091-082100-
SOUTHEAST ILLINOIS

CITY           SKY/WX    TMP DP  RH WIND       PRES   REMARKS
LAWRENCEVILLE  MOSUNNY   28  16  60 W18       30.44R WCI  15
$$

ABBREVIATIONS USED IN REMARKS
   TC - TEMPERATURE IN CELSIUS
  WCI - WIND CHILL INDEX
   HX - HEAT INDEX
  VSB - VISIBILITY
$$




USA.gov is the U.S. government's official web portal to all federal, state and local government web resources and services.